Date,TemperatureHighF,TemperatureAvgF,TemperatureLowF,DewpointHighF,DewpointAvgF,DewpointLowF,HumidityHigh,HumidityAvg,HumidityLow,PressureMaxIn,PressureMinIn,WindSpeedMaxMPH,WindSpeedAvgMPH,GustSpeedMaxMPH,PrecipitationSumIn
2013-2-1,0,-7,-18,-6,-17,-26,75,63,47,30.33,30.10,11,4,14,0.01
2013-2-2,7,2,-9,1,-6,-14,79,70,56,30.20,29.97,10,2,11,0.00
2013-2-3,15,9,2,2,0,-4,80,66,48,30.06,29.96,18,4,21,0.00
2013-2-4,12,7,-4,6,-5,-12,80,59,44,30.08,29.72,20,3,22,0.00
2013-2-5,24,18,2,19,10,-4,85,73,51,30.05,29.60,21,5,21,0.00
2013-2-6,23,13,-2,20,9,-8,85,81,76,30.09,29.94,12,3,15,0.00
2013-2-7,28,24,22,20,19,17,90,81,71,30.23,30.00,19,6,19,0.00
2013-2-8,26,17,3,17,9,-2,87,72,57,30.37,30.21,17,4,21,0.00
2013-2-9,30,26,18,26,22,12,92,84,76,30.21,29.91,25,13,25,0.00
2013-2-10,32,29,26,31,26,22,96,90,82,29.91,29.24,20,6,21,0.55
2013-2-11,31,25,18,30,21,12,96,83,72,29.97,29.25,24,8,24,0.00
2013-2-12,34,20,6,22,14,2,86,77,58,29.98,29.73,18,8,19,0.00
2013-2-13,35,27,18,29,22,15,94,81,67,29.74,29.54,13,4,13,0.08
2013-2-14,32,23,8,29,15,-1,94,72,37,30.12,29.56,22,5,27,0.01
2013-2-15,18,9,1,1,-1,-5,77,62,45,30.28,30.12,18,4,18,0.00
2013-2-16,17,5,-5,3,-4,-11,80,68,50,30.24,30.12,10,2,11,0.00
2013-2-17,27,16,-8,16,7,-14,80,67,61,30.13,29.61,31,14,32,0.00
2013-2-18,33,24,10,27,17,1,83,73,66,29.73,29.45,29,12,29,0.00
2013-2-19,10,4,-5,1,-8,-13,70,59,45,30.35,29.73,28,11,30,0.00
2013-2-20,18,4,-10,2,-6,-16,74,64,46,30.48,30.35,10,3,12,0.00
2013-2-21,24,11,-6,15,2,-12,80,67,48,30.49,30.09,14,4,17,0.00
2013-2-22,30,23,18,23,19,14,89,83,72,30.09,29.81,16,3,19,0.19
2013-2-23,35,26,17,25,20,14,92,80,60,29.90,29.78,10,1,12,0.02
2013-2-24,36,23,12,22,17,9,89,77,55,30.06,29.89,7,2,9,0.00
2013-2-25,35,23,12,24,17,9,90,78,59,30.08,30.01,7,1,8,0.00
2013-2-26,40,24,6,26,17,2,88,76,54,30.04,29.84,23,5,27,0.00
2013-2-27,37,30,24,25,23,19,82,74,58,29.97,29.82,27,9,27,0.00
2013-2-28,30,27,21,21,18,13,81,69,61,30.20,29.97,18,6,19,0.00